Regional Weather Roundup
Issued by NWS Green Bay, WI

Home | Current Version | Previous Version | Graphics & Text | Print | Product List | Glossary Off
Versions: 1 2 3 4 5 6 7 8 9 10 11 12 13 14 15 16 17 18 19 20 21 22 23 24 25 26 27 28 29 30 31 32 33 34 35 36 37 38 39 40 41 42 43 44 45 46 47 48 49 50

000
ASUS43 KGRB 030711
RWRGRB

NORTH-CENTRAL AND NORTHEAST WISCONSIN REGIONAL WEATHER ROUNDUP
NATIONAL WEATHER SERVICE GREEN BAY WI
200 AM CDT THU SEP 03 2015

WIZ005-009-010>012-018-019-030800-
NORTH CENTRAL WISCONSIN

CITY           SKY/WX    TMP DP  RH WIND       PRES   REMARKS
IRONWOOD       CLOUDY    57  57 100 CALM      29.95S VSB 1/4
MANITOWISH WTR PTCLDY    61  61 100 NE3       29.98S
ARBOR VITAE    CLOUDY    64  63  96 E3        29.98S
EAGLE RIVER    CLOUDY    65  64  99 E6        29.97S
LAND O LAKES   CLOUDY    65  64  97 CALM      29.99S
RHINELANDER    CLOUDY    65  63  93 NE5       29.97F
PHILLIPS       MOCLDY    62  62 100 CALM      29.96S FOG
ANTIGO         CLOUDY    66  65  99 N5        29.94F
TOMAHAWK       MOCLDY    62  61  96 CALM      29.97S FOG
MERRILL        MOCLDY    66  66 100 NE3       29.95S
$$

WIZ013-073-030800-
NORTHEAST WISCONSIN

CITY           SKY/WX    TMP DP  RH WIND       PRES   REMARKS
IRON MOUNTAIN  LGT RAIN  65  63  93 N3        29.92F
MARINETTE      CLOUDY    66  63  88 E8        29.89F
OCONTO         CLOUDY    66  66 100 E3        29.89F
$$

WIZ017-030-035>037-045-030800-
CENTRAL WISCONSIN

CITY           SKY/WX    TMP DP  RH WIND       PRES   REMARKS
MEDFORD        CLOUDY    66  66 100 NE5       29.95S FOG
WAUSAU         CLOUDY    69  67  93 CALM      29.92F
MOSINEE        CLOUDY    66  66 100 NE5       29.95S THUNDER
MARSHFIELD     CLOUDY    70  66  87 NE6       29.93S
WISC RAPIDS    CLOUDY    73  69  87 N7        29.93S
STEVENS POINT  CLOUDY    67  67  98 CALM      29.93S
WAUPACA        CLOUDY    72  71  96 N12       29.91S
SHAWANO        NOT AVBL
CLINTONVILLE   HVY RAIN  68  68 100 CALM      29.91F
WAUTOMA        PTCLDY    70  70 100 CALM      29.91S
$$

WIZ038-039-048-051-030800-
FOX VALLEY

CITY           SKY/WX    TMP DP  RH WIND       PRES   REMARKS
NWS GREEN BAY  LGT RAIN  69  68  96 E3        29.89F FOG
APPLETON       TSTM      68  63  83 SW18G37   29.90S
OSHKOSH        PTCLDY    72  68  87 SW8       29.89F
FOND DU LAC    MOCLDY    73  69  87 SW7       29.91S
$$

WIZ022-050-052-030800-
EAST CENTRAL WISCONSIN

CITY           SKY/WX    TMP DP  RH WIND       PRES   REMARKS
EPHRAIM        LGT RAIN  66  66 100 E3        29.91F
STURGEON BAY   CLOUDY    66  63  88 CALM      29.92F
MANITOWOC      CLOUDY    65  63  93 MISG      29.91F
SHEBOYGAN      CLOUDY    73  70  90 S3        29.92S
$$

LMZ563-521-522-541>543-030800-
LAKESHORE

STATION/POSITION TIME  TEMP    WIND        PRES    VSBY  WAVE
                       AIR SEA DIR/SP/G                  HT/PER
                 (UTC) (F)     (DEG/KT/KT) (MB)    (MI)  (FT/S)
SHEBOYGAN LKSHOR 0700   71     230/  7/  7 1012.7F
KEWAUNEE LKSHORE 0600   54     160/  3/  6 1011.9F
ALGOMA MARINA    0644           20/  4/  7   N/A
NORTHPORT PIER   0600   67      CALM  /  3 1013.5F
N MID LAKE BUOY  0650   67 66  360/ 14/ 16 1013.4R         1
S GREEN BAY BUOY 0700   66 66   80/  6/  6 1013.5F
CHAMBERS ISLAND  0600   65      50/  5/  9 1013.5F
MENOMINEE LKSHOR 0600   63      20/  7/  8 1012.3F
$$


USA.gov is the U.S. government's official web portal to all federal, state and local government web resources and services.